SCP
0 0 0 0 0 0 0 0 0 0 0 0 0 0 0 0 0 0 0 0 0 0 0 0 0 0 0 0 0 0 0 0 0 0 0 0 0 0
0 0 0 0 0 0 0 0 0 0 0 0 0 0 0 0 0 0 0 0 0 0 0 0 0 0 0 0 0 0 0 0 0 0 0 0 0 0
0 0 0 0 0 0 0 0 0 0 0 0 0 0 0 0 0 0 0 0 0 0 0 0 0 0 0 0 0 0 0 0 0 0 0 0 0 0
0 0 0 0 0 0 0 0 0 0 0 0 0 0 0 0 0 0 0 0 0 0 0 0 0 0 0 0 0 0 0 0 0 0 0 0 0 0
0 0 0 0 0 0 0 0 0 0 0 0 0 0 0 0 0 0 0 0 0 0 0 0 0 0 0 0 0 0 0 0 0 0 0 0 0 0
0 0 0 0 0 0 0 0 0 0 0 0 0 0 0 0 0 0 0 0 0 0 0 0 0 0 0 0 0 0 0 0 0 0 0 0 0 0
0 0 0 0 0 0 0 0 0 0 0 0 0 0 0 0 0 0 0 0 0 0 0 0 0 0 0 0 0 0 0 0 0 0 0 0 0 0
0 0 0 0 0 0 0 0 0 0 0 0 0 0 0 0 0 0 0 0 0 0 0 0 0 0 0 0 0 0 0 0 0 0 0 0 0 0
0 0 0 0 0 0 0 0 0 0 0 0 0 0 0 0 0 0 0 0 0 0 0 0 0 0 0 0 0 0 0 0 0 0 0 0 0 0
0 0 0 0 0 0 0 0 0 0 0 0 0 0 0 0 0 0 0 0 0 0 0 0 0 0 0 0 0 0 0 0 0 0 0 0 0 0
0 0 0 0 0 0 0 0 0 0 0 0 0 0 0 0 0 0 0 0 0 0 0 0 0 0 0 0 0 0 0 0 0 0 0 0 0 0
0 0 0 0 0 0 0 0 0 0 0 0 0 0 0 0 0 0 0 0 0 0 0 0 0 0 0 0 0 0 0 0 0 0 0 0 0 0
0 0 0 0 0 0 0 0 0 0 0 0 0 0 0 0 0 0 0 0 0 0 0 0 0 0 0 0 0 0 0 0 0 0 0 0 0 0
0 0 0 0 0 0 0 0 0 0 0 0 0 0 0 0 0 0 0 0 0 0 0 0 0 0 0 0 0 0 0 0 0 0 0 0 0 0
0 0 0 0 0 0 0 0 0 0 0 0 0 0 0 0 0 0 0 0 0 0 0 0 0 0 0 0 0 0 0 0 0 0 0 0 0 0
0 0 0 0 0 0 0 0 0 0 0 0 0 0 0 0 0 0 0 0 0 0 0 0 0 0 0 0 0 0 0 0 0 0 0 0 0 0
0 0 0 0 0 0 0 0 0 0 0 0 0 0 0 0 0 0 0 0 0 0 0 0 0 0 0 0 0 0 0 0 0 0 0 0 0 0
0 0 0 0 0 0 0 0 0 0 0 0 0 0 0 0 0 0 0 0 0 0 0 0 0 0 0 0 0 0 0 0 0 0 0 0 0 0
0 0 0 0 0 0 0 0 0 0 0 0 0 0 0 0 0 0 0 0 0 0 0 0 0 0 0 0 0 0 0 0 0 0 0 0 0 0
0 0 0 0 0 0 0 0 0 0 0 0 0 0 0 0 0 0 0 0 0 0 0 0 0 0 0 0 0 0 0 0 0 0 0 0 0 0
0 0 0 0 0 0 0 0 0 0 0 0 0 0 0 0 0 0 0 0 0 0 0 0 0 0 0 0 0 0 0 0 0 0 0 0 0 0
0 0 0 0 0 0 0 0 0 0 0 0 0 0 0 0 0 0 0 0 0 0 0 0 0 0 0 0 0 0 0 0 0 0 0 0 0 0
0 0 0 0 0 0 0 0 0 0 0 0 0 0 0 0 0 0 0 0 0 0 0 0 0 0 0 0 0 0 0 0 0 0 0 0 0 0
Wind_Speed
3 3 3 2 2 2 2 3 4 2 1 2 1 2 1 1 2 2 2 5 6 7 7 8 9 9 9 9 9 9 10 10 10 10 10 10 10 9
2 4 3 2 2 2 2 2 2 4 1 1 1 2 1 2 2 2 2 4 4 5 5 6 7 7 7 8 8 8 8 8 8 9 9 9 9 9
3 4 3 3 3 2 2 2 2 3 3 1 1 1 2 2 2 2 2 2 2 4 4 4 5 6 6 6 6 6 6 6 7 7 8 8 8 8
2 3 2 3 3 2 2 2 2 2 3 2 1 1 1 1 1 2 2 2 1 3 3 3 4 4 4 4 4 5 5 5 6 6 7 7 8 8
3 3 2 3 2 2 2 2 1 2 2 2 1 1 1 1 2 2 2 2 2 2 3 3 3 3 4 4 3 3 3 4 4 5 6 7 8 8
2 2 2 3 3 2 2 2 2 2 2 2 1 0 1 1 1 1 2 2 2 2 3 2 2 3 3 4 3 3 3 3 3 4 5 6 7 8
2 1 2 3 4 3 3 2 3 2 2 1 1 1 1 1 1 1 1 2 2 1 2 2 2 2 3 4 4 4 4 4 4 4 5 6 7 8
2 1 1 1 2 3 4 4 5 4 3 2 1 1 1 1 1 1 0 1 2 2 1 2 1 2 3 3 5 5 4 5 5 5 6 6 7 8
3 2 1 1 2 2 2 2 1 2 4 4 3 3 2 3 2 1 1 1 3 2 0 2 2 3 3 4 7 6 5 6 6 7 7 7 8 8
3 3 3 2 2 3 2 1 1 1 2 2 3 4 3 3 3 3 3 1 2 2 1 2 2 3 4 3 7 8 7 7 7 7 8 8 8 9
2 2 3 3 4 4 3 2 1 3 3 2 3 3 3 3 3 2 1 1 2 3 1 1 2 3 3 3 5 7 8 7 8 8 9 9 8 8
1 2 3 4 4 5 4 3 3 4 2 1 1 2 2 2 3 3 3 2 1 3 2 1 2 2 3 3 3 3 4 6 8 8 9 9 8 4
2 2 2 4 4 5 5 4 5 3 2 1 1 2 2 2 2 2 3 3 3 4 3 2 2 1 2 4 3 3 3 3 4 5 7 9 9 5
3 2 2 3 4 4 3 3 4 2 1 1 1 2 2 3 3 3 4 4 5 6 4 3 3 3 2 3 4 4 3 3 3 4 4 6 7 8
3 3 3 3 3 3 3 3 2 2 1 2 3 4 3 3 3 2 3 3 4 5 4 4 4 3 3 4 4 4 4 4 3 3 3 3 4 4
1 1 1 1 1 2 2 2 1 2 3 4 4 3 2 2 2 2 2 2 3 4 4 5 5 5 4 5 5 6 4 4 3 4 4 4 4 4
1 1 1 1 1 1 2 2 2 2 3 3 3 3 3 3 3 2 2 2 3 4 5 3 3 4 6 5 5 6 6 5 5 4 4 5 5 5
3 1 1 1 2 2 3 3 2 3 3 4 4 4 4 4 4 3 3 3 4 5 5 4 2 2 3 4 8 7 6 6 5 4 3 4 7 5
2 1 1 2 2 2 3 3 3 3 3 3 4 4 4 4 4 4 4 4 5 5 5 4 2 2 5 8 6 7 6 6 4 4 4 5 7 7
0 1 2 2 2 2 3 3 3 3 2 3 3 4 4 4 4 5 4 5 6 6 5 4 4 5 6 8 7 6 8 7 5 6 5 5 6 8
1 1 2 2 2 2 3 3 3 3 3 3 3 4 4 4 5 5 5 7 7 5 6 7 7 9 6 4 6 6 5 9 9 6 5 5 6 5
1 1 2 2 2 2 2 2 3 3 4 3 4 4 4 4 5 6 6 6 6 6 8 7 6 4 3 6 9 9 8 6 7 11 11 9 5 6
1 1 2 2 2 2 2 3 3 3 3 3 4 4 4 5 5 5 6 6 6 7 7 7 5 4 5 6 8 8 9 8 5 5 6 10 14 15
Wind_Direction
90 88 83 69 79 94 119 133 136 131 308 294 312 322 328 352 3 15 15 35 44 49 49 48 46 46 44 44 44 42 42 42 41 39 37 37 36 34
85 84 75 64 67 72 97 102 116 136 159 264 262 284 329 20 29 13 4 25 33 39 42 41 41 40 39 39 38 37 37 36 35 34 33 32 29 27
79 92 87 86 80 68 78 87 91 111 123 290 316 333 13 9 359 352 355 360 360 18 29 32 35 34 34 35 34 33 30 27 25 24 23 21 19 17
108 99 91 94 81 71 80 84 93 112 131 150 299 341 337 317 340 348 356 357 335 355 4 7 9 16 18 21 24 21 19 19 17 14 12 9 6 3
139 129 122 110 98 86 90 92 90 88 101 133 190 295 315 345 11 352 351 343 328 338 344 348 356 6 6 5 5 4 3 4 3 0 358 357 355 352
132 140 142 143 150 138 111 114 109 94 87 95 100 322 310 338 39 354 338 332 322 339 341 346 0 359 354 353 348 346 341 336 339 343 345 344 344 342
107 130 153 150 149 149 141 150 130 111 98 86 76 30 351 349 281 271 294 312 304 306 327 320 330 329 323 320 322 326 330 327 322 325 329 330 333 335
147 145 141 144 157 159 151 150 148 144 151 144 163 193 246 228 214 196 193 6 310 304 335 300 314 293 284 279 281 291 306 315 312 312 316 319 324 329
171 177 171 146 146 138 135 121 165 174 163 160 171 207 214 214 171 159 191 201 241 270 21 286 298 288 284 283 277 279 291 301 305 308 312 311 311 315
185 188 190 206 190 163 152 136 295 276 233 190 193 210 209 198 181 186 198 221 289 296 137 270 287 283 293 288 284 283 288 296 301 304 307 308 307 308
208 202 199 211 219 179 158 182 268 295 295 252 235 240 237 207 157 109 87 52 314 295 243 236 281 295 292 286 291 291 289 294 299 304 307 306 305 307
252 250 234 219 209 185 177 184 221 254 266 320 308 303 281 258 214 182 179 180 236 278 260 219 274 316 310 296 302 304 298 291 291 296 304 306 304 305
229 254 253 227 215 206 191 197 221 219 213 224 261 291 305 294 270 234 204 190 203 240 236 186 224 240 250 290 299 286 278 284 291 291 295 299 298 290
224 236 237 226 222 221 212 224 228 210 175 217 262 274 273 272 267 252 236 228 227 235 233 192 208 220 242 275 284 290 284 274 271 278 282 295 294 291
222 221 227 236 243 247 248 240 221 194 189 228 249 256 250 257 270 281 280 263 263 258 250 225 223 231 224 246 266 271 286 283 262 268 277 278 276 284
237 259 314 306 275 284 291 274 237 211 211 233 250 260 265 269 264 253 262 272 280 282 266 240 231 226 241 250 255 269 261 267 277 266 268 273 271 262
146 73 23 346 314 303 297 286 272 265 254 254 256 268 270 268 268 256 245 247 253 272 284 278 253 239 239 244 257 260 262 263 262 267 270 277 270 261
127 157 237 247 253 260 265 272 264 257 254 253 254 255 259 262 271 269 251 247 259 265 270 274 283 304 303 268 233 251 258 261 264 259 249 268 279 272
132 210 240 251 258 261 262 264 269 269 266 262 263 265 265 267 269 271 266 263 265 266 269 268 256 253 281 288 270 226 247 267 265 264 251 248 267 276
204 240 254 261 265 269 271 274 279 287 278 270 270 272 272 273 275 272 269 265 269 274 277 269 250 241 249 268 276 271 240 245 254 263 267 266 265 272
251 266 271 275 275 275 277 279 280 281 283 280 277 276 275 273 274 274 274 276 271 270 272 270 261 259 258 267 277 275 260 238 238 249 260 273 282 283
273 274 282 285 284 282 285 290 294 292 292 287 285 285 281 276 276 279 280 280 275 270 271 274 276 271 250 255 269 276 278 272 254 254 250 243 251 264
273 277 284 293 294 294 293 296 296 295 293 291 292 291 289 286 283 281 281 280 281 282 282 284 282 266 259 259 268 275 278 281 279 273 264 258 256 261